Time,TemperatureF,DewpointF,PressureIn,WindDirection,WindDirectionDegrees,WindSpeedMPH,WindSpeedGustMPH,Humidity,HourlyPrecipIn,Conditions,Clouds,dailyrainin,SoftwareType,DateUTC
2013-08-01 00:03:00,72.0,68.0,29.92,NW,313,0.0,0.0,88,0.00,,,0.01,,2013-08-01 04:03:00,
2013-08-01 00:13:00,72.0,68.0,29.92,NW,313,0.0,0.0,88,0.00,,,0.01,,2013-08-01 04:13:00,
2013-08-01 00:22:00,70.0,66.0,29.93,WNW,296,0.0,0.0,87,0.00,,,0.01,,2013-08-01 04:22:00,
2013-08-01 00:53:00,69.0,66.0,29.93,West,265,0.0,0.0,89,0.00,,,0.01,,2013-08-01 04:53:00,
2013-08-01 01:03:00,70.0,67.0,29.92,West,265,0.0,0.0,89,0.00,,,0.01,,2013-08-01 05:03:00,
2013-08-01 01:13:00,70.0,67.0,29.92,West,265,0.0,0.0,89,0.00,,,0.01,,2013-08-01 05:13:00,
2013-08-01 01:23:00,70.0,67.0,29.92,West,265,0.0,0.0,89,0.00,,,0.01,,2013-08-01 05:23:00,
2013-08-01 01:33:00,70.0,67.0,29.92,West,265,0.0,0.0,89,0.00,,,0.01,,2013-08-01 05:33:00,
2013-08-01 01:43:00,70.0,67.0,29.91,West,265,0.0,0.0,89,0.00,,,0.01,,2013-08-01 05:43:00,
2013-08-01 01:53:00,70.0,67.0,29.91,West,265,0.0,0.0,89,0.00,,,0.01,,2013-08-01 05:53:00,
2013-08-01 02:02:00,70.0,67.0,29.91,West,265,0.0,0.0,89,0.00,,,0.01,,2013-08-01 06:02:00,
2013-08-01 02:23:00,70.0,67.0,29.90,West,265,0.0,0.0,89,0.00,,,0.01,,2013-08-01 06:23:00,
2013-08-01 02:33:00,70.0,67.0,29.89,West,265,0.0,0.0,89,0.00,,,0.01,,2013-08-01 06:33:00,
2013-08-01 02:43:00,70.0,67.0,29.88,West,265,0.0,0.0,89,0.00,,,0.01,,2013-08-01 06:43:00,
2013-08-01 02:52:00,70.0,67.0,29.88,West,265,0.0,0.0,89,0.00,,,0.01,,2013-08-01 06:52:00,
2013-08-01 03:03:00,70.0,67.0,29.88,West,265,0.0,0.0,89,0.00,,,0.01,,2013-08-01 07:03:00,
2013-08-01 03:12:00,70.0,67.0,29.87,West,265,0.0,0.0,89,0.00,,,0.01,,2013-08-01 07:12:00,
2013-08-01 03:23:00,70.0,67.0,29.87,West,265,0.0,0.0,89,0.00,,,0.01,,2013-08-01 07:23:00,
2013-08-01 03:32:00,70.0,67.0,29.86,West,265,0.0,0.0,89,0.00,,,0.01,,2013-08-01 07:32:00,
2013-08-01 03:43:00,70.0,67.0,29.85,West,265,0.0,0.0,89,0.00,,,0.01,,2013-08-01 07:43:00,
2013-08-01 03:53:00,70.0,67.0,29.85,West,265,0.0,0.0,89,0.00,,,0.01,,2013-08-01 07:53:00,
2013-08-01 04:09:00,70.0,67.0,29.85,West,265,0.0,0.0,89,0.01,,,0.02,,2013-08-01 08:09:00,
2013-08-01 04:17:00,70.0,67.0,29.85,West,265,0.0,0.0,90,0.01,,,0.02,,2013-08-01 08:17:00,
2013-08-01 04:28:00,70.0,67.0,29.85,West,265,0.0,0.0,90,0.01,,,0.02,,2013-08-01 08:28:00,
2013-08-01 04:41:00,70.0,67.0,29.85,West,265,0.0,0.0,89,0.01,,,0.02,,2013-08-01 08:41:00,
2013-08-01 04:47:00,70.0,67.0,29.85,West,265,0.0,0.0,90,0.01,,,0.02,,2013-08-01 08:47:00,
2013-08-01 05:02:00,70.0,67.0,29.85,West,265,0.0,0.0,90,0.01,,,0.02,,2013-08-01 09:02:00,
2013-08-01 05:24:00,70.0,67.0,29.85,West,265,0.0,0.0,90,0.00,,,0.02,,2013-08-01 09:24:00,
2013-08-01 06:19:00,70.0,67.0,29.85,West,265,0.0,0.0,90,0.00,,,0.02,,2013-08-01 10:19:00,
2013-08-01 06:32:00,70.0,67.0,29.85,West,265,0.0,0.0,90,0.00,,,0.02,,2013-08-01 10:32:00,
2013-08-01 07:16:00,70.0,67.0,29.85,West,265,0.0,0.0,90,0.00,,,0.02,,2013-08-01 11:16:00,
2013-08-01 07:36:00,70.0,67.0,29.85,West,265,0.0,0.0,90,0.00,,,0.02,,2013-08-01 11:36:00,
2013-08-01 07:47:00,70.0,67.0,29.85,West,265,0.0,0.0,90,0.00,,,0.02,,2013-08-01 11:47:00,
2013-08-01 08:34:00,71.0,68.0,29.85,West,265,0.0,0.0,90,0.00,,,0.02,,2013-08-01 12:34:00,
2013-08-01 08:59:00,71.0,68.0,29.86,West,265,0.0,0.0,90,0.00,,,0.02,,2013-08-01 12:59:00,
2013-08-01 09:17:00,71.0,68.0,29.86,West,265,0.0,0.0,90,0.00,,,0.02,,2013-08-01 13:17:00,
2013-08-01 09:35:00,71.0,68.0,29.86,West,271,0.0,0.0,90,0.44,,,0.46,,2013-08-01 13:35:00,
2013-08-01 09:45:00,71.0,68.0,29.86,West,271,0.0,0.0,90,0.44,,,0.46,,2013-08-01 13:45:00,
2013-08-01 10:21:00,71.0,68.0,29.86,West,271,0.0,0.0,90,0.44,,,0.46,,2013-08-01 14:21:00,
2013-08-01 11:18:00,72.0,69.0,29.85,WSW,254,0.0,0.0,90,0.00,,,0.46,,2013-08-01 15:18:00,
2013-08-01 11:33:00,72.0,69.0,29.85,WSW,254,0.0,0.0,90,0.00,,,0.46,,2013-08-01 15:33:00,
2013-08-01 11:40:00,72.0,69.0,29.85,WSW,254,0.0,0.0,90,0.00,,,0.46,,2013-08-01 15:40:00,
2013-08-01 12:21:00,72.0,69.0,29.85,WSW,250,0.0,0.0,90,0.00,,,0.46,,2013-08-01 16:21:00,
2013-08-01 12:44:00,73.0,69.0,29.84,WSW,250,0.0,0.0,88,0.00,,,0.46,,2013-08-01 16:44:00,
2013-08-01 12:51:00,74.0,70.0,29.85,WSW,250,0.0,0.0,88,0.00,,,0.46,,2013-08-01 16:51:00,
2013-08-01 13:36:00,75.0,69.0,29.83,WSW,241,0.0,0.0,83,0.00,,,0.46,,2013-08-01 17:36:00,
2013-08-01 13:47:00,77.0,71.0,29.83,ESE,105,0.0,0.0,82,0.00,,,0.46,,2013-08-01 17:47:00,
2013-08-01 13:55:00,77.0,71.0,29.83,ESE,105,0.0,0.0,82,0.00,,,0.46,,2013-08-01 17:55:00,
2013-08-01 14:16:00,78.0,70.0,29.82,ESE,106,0.0,0.0,77,0.00,,,0.46,,2013-08-01 18:16:00,
2013-08-01 14:35:00,78.0,71.0,29.81,ESE,106,0.0,0.0,78,0.00,,,0.46,,2013-08-01 18:35:00,
2013-08-01 14:46:00,78.0,71.0,29.81,ESE,106,0.0,0.0,78,0.00,,,0.45,,2013-08-01 18:46:00,
2013-08-01 14:54:00,80.0,71.0,29.80,SW,215,0.0,0.0,74,0.00,,,0.45,,2013-08-01 18:54:00,
2013-08-01 15:16:00,80.0,71.0,29.80,SW,215,0.0,0.0,74,0.00,,,0.45,,2013-08-01 19:16:00,
2013-08-01 15:34:00,79.0,71.0,29.80,SW,215,0.0,0.0,77,0.00,,,0.45,,2013-08-01 19:34:00,
2013-08-01 15:55:00,80.0,71.0,29.79,SW,215,0.0,0.0,75,0.00,,,0.45,,2013-08-01 19:55:00,
2013-08-01 16:02:00,80.0,71.0,29.79,SW,215,0.0,0.0,75,0.00,,,0.45,,2013-08-01 20:02:00,
2013-08-01 16:40:00,78.0,71.0,29.78,South,185,0.0,0.0,80,0.00,,,0.45,,2013-08-01 20:40:00,
2013-08-01 16:49:00,77.0,71.0,29.78,South,184,0.0,0.0,82,0.00,,,0.45,,2013-08-01 20:49:00,
2013-08-01 16:56:00,77.0,71.0,29.78,South,184,0.0,0.0,82,0.00,,,0.45,,2013-08-01 20:56:00,
2013-08-01 17:04:00,78.0,72.0,29.78,South,184,0.0,0.0,83,0.00,,,0.45,,2013-08-01 21:04:00,
2013-08-01 17:35:00,78.0,72.0,29.78,South,184,0.0,0.0,82,0.00,,,0.45,,2013-08-01 21:35:00,
2013-08-01 17:43:00,79.0,72.0,29.78,South,184,0.0,0.0,79,0.00,,,0.45,,2013-08-01 21:43:00,
2013-08-01 17:53:00,79.0,72.0,29.78,South,184,0.0,0.0,79,0.00,,,0.45,,2013-08-01 21:53:00,
2013-08-01 18:12:00,79.0,72.0,29.78,South,184,0.0,0.0,79,0.00,,,0.45,,2013-08-01 22:12:00,
2013-08-01 18:18:00,79.0,72.0,29.78,South,184,0.0,0.0,79,0.00,,,0.45,,2013-08-01 22:18:00,
2013-08-01 18:35:00,80.0,71.0,29.77,South,190,0.0,0.0,73,0.00,,,0.45,,2013-08-01 22:35:00,
2013-08-01 18:46:00,80.0,71.0,29.78,South,190,0.0,0.0,73,0.00,,,0.45,,2013-08-01 22:46:00,
2013-08-01 19:11:00,79.0,71.0,29.78,South,190,0.0,0.0,77,0.00,,,0.45,,2013-08-01 23:11:00,
2013-08-01 19:25:00,79.0,72.0,29.78,SSW,192,0.0,0.0,78,0.00,,,0.45,,2013-08-01 23:25:00,
2013-08-01 19:33:00,78.0,71.0,29.79,SSW,192,0.0,0.0,79,0.00,,,0.45,,2013-08-01 23:33:00,
2013-08-01 19:49:00,77.0,71.0,29.79,SSW,192,0.0,0.0,82,0.00,,,0.45,,2013-08-01 23:49:00,
2013-08-01 19:58:00,77.0,71.0,29.79,SSW,192,0.0,0.0,82,0.00,,,0.45,,2013-08-01 23:58:00,
2013-08-01 20:09:00,76.0,70.0,29.80,SSW,192,0.0,0.0,83,0.00,,,0.45,,2013-08-02 00:09:00,
2013-08-01 20:19:00,76.0,71.0,29.80,SSW,192,0.0,0.0,84,0.00,,,0.45,,2013-08-02 00:19:00,
2013-08-01 20:30:00,76.0,71.0,29.80,SSW,192,0.0,0.0,84,0.00,,,0.45,,2013-08-02 00:30:00,
2013-08-01 20:39:00,75.0,70.0,29.80,South,191,0.0,0.0,85,0.01,,,0.46,,2013-08-02 00:39:00,
2013-08-01 20:50:00,75.0,70.0,29.80,South,191,0.0,0.0,85,0.01,,,0.46,,2013-08-02 00:50:00,
2013-08-01 20:57:00,75.0,70.0,29.81,South,190,0.0,0.0,85,0.01,,,0.46,,2013-08-02 00:57:00,
2013-08-01 21:06:00,74.0,70.0,29.81,South,190,0.0,0.0,86,0.01,,,0.46,,2013-08-02 01:06:00,
2013-08-01 21:17:00,74.0,70.0,29.82,South,190,0.0,0.0,87,0.01,,,0.46,,2013-08-02 01:17:00,
2013-08-01 21:30:00,74.0,70.0,29.82,South,190,0.0,0.0,87,0.01,,,0.46,,2013-08-02 01:30:00,
2013-08-01 21:40:00,73.0,69.0,29.82,South,190,0.0,0.0,87,0.00,,,0.46,,2013-08-02 01:40:00,
2013-08-01 21:48:00,73.0,69.0,29.82,South,190,0.0,0.0,88,0.00,,,0.46,,2013-08-02 01:48:00,
2013-08-01 21:57:00,73.0,69.0,29.82,South,190,0.0,0.0,88,0.00,,,0.46,,2013-08-02 01:57:00,
2013-08-01 22:09:00,73.0,69.0,29.83,South,190,0.0,0.0,88,0.00,,,0.46,,2013-08-02 02:09:00,
2013-08-01 22:18:00,73.0,69.0,29.83,South,190,0.0,0.0,88,0.00,,,0.46,,2013-08-02 02:18:00,
2013-08-01 22:28:00,72.0,68.0,29.83,South,190,0.0,0.0,88,0.00,,,0.46,,2013-08-02 02:28:00,
2013-08-01 22:55:00,72.0,69.0,29.82,South,190,0.0,0.0,89,0.00,,,0.46,,2013-08-02 02:55:00,
2013-08-01 23:11:00,72.0,69.0,29.83,South,190,0.0,0.0,89,0.00,,,0.46,,2013-08-02 03:11:00,
2013-08-01 23:23:00,72.0,69.0,29.85,South,190,0.0,0.0,89,0.00,,,0.46,,2013-08-02 03:23:00,
2013-08-01 23:39:00,72.0,69.0,29.85,South,190,0.0,0.0,89,0.00,,,0.46,,2013-08-02 03:39:00,